Starlink 30282

operational
NORAD ID: 57883 Int'l Des: 2023-144 Owner: SPXS Country: US Constellation: starlink
LEOCIRCULAR

Über Starlink 30282

Beschreibung wird geladen...

Live-Position

3D-Globus wird geladen...

Nächste Überflüge

Höhenverlauf

Altitude vs Time

uPlot chart will show altitude changes over time

Zweizeiliger Elementsatz

1 57883U 23144V 25259.11982087 .00000772 00000-0 72212-4 0 9998
2 57883 43.0044 155.7965 0001061 262.4624 97.6098 15.02540318111359
Epoch: 16. Sept. 2025 • Age: 22 hours

Aktueller Status

Höhe 558.4 km
Geschwindigkeit 7.59 km/s
Subsatellitenpunkt 14.63°N, 151.03°E
Startdatum 16. Sept. 2023
Alter 2 years
Typ internet

Technische Details

Klassifizierung Payload
Masse 730.00 kg
Trockenmasse 700.00 kg
Gesamtmasse 730.00 kg
Länge 0.30 m
Durchmesser 4.10 m
Spannweite 29.00 m
Form Box + pan
Hersteller SPXS
Bus-Typ Starlink V2M
Phasenstatus In Orbit
Besitzer/Staat SPXS/US

Große Konstellationen

Loading constellations...